Change the Weather History Date:

Thursday, January 2, 2014

  Actual Average Record
Temperature  
Mean Temperature 44 °F -  
Max Temperature 46 °F - - ()
Min Temperature 41 °F - - ()
Degree Days  
Heating Degree Days 22    
Moisture  
Dew Point -    
Average Humidity    
Maximum Humidity    
Minimum Humidity    
Precipitation  
Precipitation 0.00 in - - ()
Sea Level Pressure  
Sea Level Pressure 30.02 in    
Wind  
Wind Speed 16 mph ()    
Max Wind Speed 33 mph    
Max Gust Speed 36 mph    
T = Trace of Precipitation, MM = Missing Value Source: Averaged Metar Reports

Daily Weather History Graph

Daily Weather History Graph

Search for Another Location

Airport or City:

Trip Planner

Search our weather history database for the weather conditions in past years. The results will help you decide how hot, cold, wet, or windy it might be!

Date:

Astronomy

Jan. 02, 2014 Rise Set
Actual Time 8:21 AM PST 4:39 PM PST
Civil Twilight 7:44 AM PST 5:16 PM PST
Nautical Twilight 7:03 AM PST 5:57 PM PST
Astronomical Twilight 6:24 AM PST 6:35 PM PST
Moon 8:56 AM PST (1/2) 6:56 PM PST (1/2)
Length of Visible Light 9h 32m
Length of Day
8h 17m
Waxing Crescent, 3% of the Moon is Illuminated
Jan 2
Waxing Crescent
Jan 7
First Quarter
Jan 15
Full
Jan 23
Last Quarter
Jan 30
New

Hourly Weather History & Observations

Time (PST) Temp. Windchill Dew Point Humidity Pressure Visibility Wind Dir Wind Speed Gust Speed Precip Events Conditions
12:00 AM 45.0 °F 38.5 °F - N/A% 30.20 in - East 13.8 mph 23.0 mph N/A   Unknown
1:00 AM 45 °F - - % 30.17 in - East 13.8 mph - -  
1:00 AM 45.0 °F 38.5 °F - N/A% 30.17 in - East 13.8 mph 25.3 mph N/A   Unknown
2:00 AM 45.0 °F 37.6 °F - N/A% 30.14 in - East 17.3 mph 28.8 mph N/A   Unknown
3:00 AM 44.8 °F 38.0 °F - N/A% 30.12 in - East 15.0 mph 27.6 mph N/A   Unknown
4:00 AM 45 °F - - % 30.10 in - East 16.1 mph - -  
4:00 AM 44.6 °F 37.4 °F - N/A% 30.10 in - East 16.1 mph 28.8 mph N/A   Unknown
5:00 AM 44.2 °F 37.0 °F - N/A% 30.07 in - East 16.1 mph 27.6 mph N/A   Unknown
6:00 AM 44.4 °F 37.9 °F - N/A% 30.04 in - East 13.8 mph 25.3 mph N/A   Unknown
7:00 AM 45 °F - - % 30.01 in - East 16.1 mph - -  
7:00 AM 44.6 °F 37.4 °F - N/A% 30.01 in - East 16.1 mph 27.6 mph N/A   Unknown
8:00 AM 44.8 °F 38.0 °F - N/A% 29.99 in - East 15.0 mph 27.6 mph N/A   Unknown
9:00 AM 45.1 °F 38.4 °F - N/A% 29.98 in - East 15.0 mph 23.0 mph N/A   Unknown
10:00 AM 45 °F - - % 29.98 in - East 15.0 mph - -  
10:00 AM 45.3 °F 38.7 °F - N/A% 29.98 in - East 15.0 mph 25.3 mph N/A   Unknown
11:00 AM 43.7 °F 36.9 °F - N/A% 29.97 in - East 13.8 mph 20.7 mph N/A   Unknown
12:00 PM 45.7 °F 41.0 °F - N/A% 29.96 in - East 9.2 mph - N/A   Unknown
1:00 PM 46 °F - - % 29.94 in - West 9.2 mph - -  
1:00 PM 46.0 °F 41.4 °F - N/A% 29.94 in - West 9.2 mph - N/A   Unknown
2:00 PM 45.5 °F 37.3 °F - N/A% 29.94 in - West 21.9 mph - N/A   Unknown
3:00 PM 44.2 °F 35.7 °F - N/A% 29.94 in - West 21.9 mph - N/A   Unknown
4:00 PM 44 °F - - % 29.95 in - West 26.5 mph - -  
4:00 PM 44.2 °F 34.8 °F - N/A% 29.95 in - West 26.5 mph - N/A   Unknown
5:00 PM 43.7 °F 33.9 °F - N/A% 29.95 in - West 27.6 mph - N/A   Unknown
6:00 PM 43.7 °F 33.0 °F - N/A% 29.96 in - West 33.4 mph - N/A   Unknown
7:00 PM 44 °F - - % 29.98 in - West 29.9 mph - -  
7:00 PM 41.9 °F 31.1 °F - N/A% 29.98 in - West 29.9 mph 35.7 mph N/A   Unknown
8:00 PM 43.2 °F 32.8 °F - N/A% 30.00 in - West 29.9 mph - N/A   Unknown
9:00 PM 42.8 °F 32.5 °F - N/A% 30.01 in - WNW 28.8 mph - N/A   Unknown
10:00 PM 43 °F - - % 30.05 in - West 26.5 mph - -  
10:00 PM 42.6 °F 32.6 °F - N/A% 30.05 in - West 26.5 mph - N/A   Unknown
11:00 PM 42.6 °F 32.8 °F - N/A% 30.07 in - WNW 25.3 mph - N/A   Unknown